This is the latest recevied weather packets stored in our database for station/object SV9FBP-13. If no packets are shown the sender has not sent any weather packets the latest 10 day(s).
| Time | Temp. | Humidity | Pressure | Rain* | Wind** | Luminosity | Snow |
|---|---|---|---|---|---|---|---|
| 1788273361 | 31.67° C | 46% | 1009.3 hPa | 0 mm | - | - | - |
| 1788272459 | 32.22° C | 46% | 1009.3 hPa | 0 mm | - | - | - |
| 1788271556 | 33.33° C | 41% | 1009.5 hPa | 0 mm | - | - | - |
| 1788270658 | 33.33° C | 45% | 1009.5 hPa | 0 mm | - | - | - |
| 1788269752 | 33.33° C | 44% | 1009.4 hPa | 0 mm | - | - | - |
| 1788268853 | 33.33° C | 42% | 1009.4 hPa | 0 mm | - | - | - |
| 1788267948 | 33.33° C | 40% | 1009.3 hPa | 0 mm | - | - | - |
| 1788267047 | 33.33° C | 40% | 1009.4 hPa | 0 mm | - | - | - |
| 1788266144 | 34.44° C | 41% | 1009.5 hPa | 0 mm | - | - | - |
| 1788265242 | 33.33° C | 39% | 1009.6 hPa | 0 mm | - | - | - |
| 1788264340 | 33.89° C | 36% | 1009.7 hPa | 0 mm | - | - | - |
| 1788263437 | 33.33° C | 36% | 1009.7 hPa | 0 mm | - | - | - |
| 1788262535 | 33.33° C | 34% | 1009.6 hPa | 0 mm | - | - | - |
| 1788261633 | 33.33° C | 34% | 1009.8 hPa | 0 mm | - | - | - |
| 1788260731 | 33.33° C | 33% | 1009.7 hPa | 0 mm | - | - | - |
| 1788259829 | 32.78° C | 35% | 1009.8 hPa | 0 mm | - | - | - |
| 1788258927 | 32.78° C | 37% | 1009.8 hPa | 0 mm | - | - | - |
| 1788258025 | 32.78° C | 36% | 1009.7 hPa | 0 mm | - | - | - |
| 1788257122 | 32.78° C | 37% | 1009.8 hPa | 0 mm | - | - | - |
| 1788256220 | 32.78° C | 36% | 1009.7 hPa | 0 mm | - | - | - |
| 1788255318 | 32.78° C | 34% | 1009.7 hPa | 0 mm | - | - | - |
| 1788254415 | 32.78° C | 33% | 1009.6 hPa | 0 mm | - | - | - |
| 1788253526 | 32.22° C | 38% | 1009.7 hPa | 0.25 mm | - | - | - |
| 1788252611 | 32.22° C | 39% | 1009.7 hPa | 0.25 mm | - | - | - |
| 1788251724 | 32.78° C | 33% | 1009.6 hPa | 0.25 mm | - | - | - |
* Rain latest hour (hover to see other rain measurements)
** Current wind speed in m/s (hover to see current wind gust speed)